{"data":{"norad_id":28413,"epoch":"2026-09-19T01:29:02.077440Z","epoch_age_seconds":138455,"freshness":"FRESH","line1":"1 28413U 04035A   26262.06182960  .00004666  00000+0  22538-3 0  9994","line2":"2 28413  97.5825 289.4703 0006603 155.7679 204.3867 15.19133059201712","mean_motion":15.19133059,"eccentricity":0.0006603,"inclination_deg":97.5825,"raan_deg":289.4703,"arg_perigee_deg":155.7679,"mean_anomaly_deg":204.3867,"bstar":0.00022538,"rev_number":20171,"period_min":94.790906660139,"perigee_km":503.91218380638,"apogee_km":513.00662301672,"semimajor_km":6886.5964034115,"source":"CELESTRAK","updated_at":"2026-09-20T09:00:13.599657Z"}}